Погода в Юсте

Погода в Юсте : погода сейчас, прогноз погоды и архив. Всё, что Вы хотите узнать о погоде в Юсте!

Хотите узнать прогноз погоды в Юсте? Тогда Вам сюда: Погода в Юсте

Поиск расширенной информации на нашем сайте:

Другие новости

Новости СМИ2

Главная страница сайта

Новости сайта

02.10.2013

Напоминаем, что на нашем новом сайте вы можете получить высокодетализированные прогнозы погоды по пунктам России, СНГ и мира (включающие важные для авиации метеовеличины, такие как направление и скорость ветра, видимость, явления погоды, количество и форма облачности, нижняя и верхняя граница облачности), а также ознакомиться с разнообразными материалами по авиационной метеорологии и подборкой полезных ссылок на эту тему.

Сайт Метеоцентр.Азия посвящён разработке технологий оптимизации авиаметеорологического обслуживания, включая проектирование и перспективное создание нескольких автоматизированных авиаметеорологических систем:
- система выпуска высокодетальных прогностических карт явлений погоды для нижнего воздушного пространства по России и ближнему зарубежью;
- система верификации прогнозов TAF (выпускаемых синоптиками официальных АМСГ РФ и ближнего зарубежья) и AUTOTAF (выпускаемых сайтом Метеоцентр.Азия) - выявление ошибок, онлайн-сопоставление с фактической погодой METAR, автоматическое внесение коррективов в прогнозы при резком отклонении фактической погоды от прогноза, подсчёт оправдываемости прогнозов по элементам и в целом;
- система обработки, анализа и отображения авиаметеорологической информации для применения провайдерами метеорологической информации.

Рекомендуем: Мебель для гостиной мебель в гостиную.

Погода в Юсте - сегодня

Время (UTC), дата Ветер
(°,м/с) 
Видим.   Явления Облачность Т
(°С)
Тd
(°С)
f(%) Тe
(°С)
Pmin
(гПа)
dP
(гПа)
Po
(мм)
O2
(г/м3)
Тmin Tmax R s Состояние
почвы
03 20.04.17 260 (З) 20000 м    9/8 300 м средняя 
[Sc|Ac trans]
+7 +4.2 82 +5  1017.2  0.9  763  299  +4.8        влажная 
06 20.04.17 300 (СЗ) 7-11{14}  20000 м    9/9 300 м 
[Sc]
+5.9 +2.4 78 +3  1019  1.8  764  301           
09 20.04.17 290 (З) 7-10{11}  20000 м    8/8 600 м 
[Sc]
+9.4 +1.9 59 +7  1019.8  0.8  765  298           
12 20.04.17 320 (СЗ) 5{11}  20000 м    ясно 
+11.6 +1 48 +11  1019.3  -0.5  764  295           
15 20.04.17 360 (С) 20000 м    3/0 верхняя 
[Ci fib]
+10.6 -0.7 45 +9  1020.2  0.9  765  297    +11.6       
18 20.04.17 030 (СВ) 10 км    ясно 
+4.1 +0.1 75 +4  1021.4  1.2  766  304           
21 20.04.17 030 (СВ) 10 км    ясно 
+1.2 -1.2 84 +1  1021.7  0.3  766  307           
00 21.04.17 050 (СВ) 10 км    ясно 
+0.6 -1.5 86 -2  1020.7  -1  765  308           
03 21.04.17 070 (В) 20000 м    4/0 верхняя 
[Cs]
+1.1 -1.4 83 -2  1020.8  -0.2  765  307  -0.1        сухая 
06 21.04.17 100 (В) 6{12}  20000 м    9/0 верхняя 
[Cs]
+7.1 -0.9 57 +5  1020.2  -0.6  765  300           
09 21.04.17 100 (В) 6{12}  20000 м    8/0 верхняя 
[Cs]
+10.9 -0.3 46 +9  1018.7  -1.5  764  296           
12 21.04.17 080 (В) 20000 м    9/0 средняя 
[Ac As]
+12.9 +2.2 48 +12  1016.5  -2.2  762  293           
15 21.04.17 090 (В) 20000 м    9/0 средняя 
[Ac As]
+13 +4.1 55 +13  1013.7  -2.7  760  292    +13.3       
18 21.04.17 160 (Ю) 10 км    9/9 300 м 
[Sc]
+11.1 +6 71 +10  1012.9  -0.9  759  293           
21 21.04.17 130 (ЮВ) 10 км    9/9 300 м 
[Sc]
+9.7 +6.7 82 +9  1011.6  -1.3  758  294           
00 22.04.17 210 (ЮЗ) 4000 м  слаб. дождь  10/10 300 м 
[Cu med, cong]
+8.7 +7.5 92 +8  1010.9  -0.7  758  295           
03 22.04.17 310 (СЗ) 2{17}  4000 м  слаб. дождь  10/10 300 м 
[Cu med, cong]
+4.4 +3.8 96 +4  1010.3  -0.5  758  300  +4.4      мокрая 
06 22.04.17 220 (ЮЗ) 20000 м  {дождь}  9/4 300 м верхняя 
[Sc|Ci sp]
+6.4 +4.4 87 +5  1010.7  0.4  758  298           
09 22.04.17 260 (З) 10-16{22}  4000 м  слаб. ливневой дождь  9/9 300 м кучево-дожд. 
[Cb calv]
+6.9 +4 82 +4  1009.8  -0.9  757  297           
12 22.04.17 260 (З) 12-21{23}  20000 м  в посл. час ливневой дождь  8/8 600 м кучево-дожд. 
[Cb calv]
+8.9 +5.3 78 +6  1009.4  -0.4  757  294           
15 22.04.17 270 (З) 9-14{22}  20000 м    8/6 600 м кучево-дожд., средняя 
[Cb calv|Ac cuf]
+9.3 +3.3 66 +7  1012.7  3.2  759  295    +11.9     
18 22.04.17 250 (З) 6{16}  10 км    ясно 
+6.5 +2.6 76 +4  1016  3.3  762  299           
21 22.04.17 220 (ЮЗ) 10 км    ясно 
+3.9 +2 87 +2  1016.2  0.2  762  302           
00 23.04.17 220 (ЮЗ) 10 км    ясно 
+3.8 +2.6 92 +2  1016.2  0.1  762  302           
03 23.04.17 210 (ЮЗ) 20000 м    6/0 верхняя 
[Ci sp]
+4.5 +3.2 91 +3  1016.5  0.3  762  302  +3.5        влажная 
Время (UTC), дата Ветер
(°,м/с) 
Видим.   Явления Облачность Т
(°С)
Тd
(°С)
f(%) Тe
(°С)
Pmin
(гПа)
dP
(гПа)
Po
(мм)
O2
(г/м3)
Тmin Tmax R s Состояние
почвы

Для получения пояснительной информации подведите курсор к названию столбца.

ПОГОДА в Юсте - архив

Всё, что Вы хотите узнать о погоде в Юсте - удобно и подробно!

Выберите нужную дату (начиная с 1 января 2015* года) и нажмите кнопку "Найти".
Будут отображены архивные сводки погоды по пункту Юста, начиная с указанной даты.


Отображать данные в формате CSV (для использования в таблицах Excel)


Внимание! Наш архив погоды предназначен исключительно для личного некоммерческого использования в познавательных целях. Если Вам необходимы официальные справки о состоянии погоды (для производственных, юридических, коммерческих и т.п. целей), обращайтесь в органы Росгидромета.

*Примечание: данная дата относится к архиву по метеостанциям СССР (Россия, СНГ, Балтия).
Архив по метеостанциям Зарубежной Европы и Азии (кроме Китая) хранится 10 дней, по другим регионам земного шара (Китай, Африка, Америка, Австралия, Океания) - 1 день.

Юста - район местоположения метеостанции


Название, широта, долгота, высота метеостанции:
Юста 47.1°ш. 46.3°д. 2 м над ур. моря [Российская Федерация]

Дополнительная информация

В oтличие oт бoльшинства пoгoдных сайтoв мы публикуем пoдрoбную метеoинфoрмацию в детальнoм прoфессиoнальнoм фoрмате.

Характеристики температуры и влажнoсти вoздуха измеряются на высoте 2 м в тени вдали oт зданий и деревьев.
Скoрoсть ветра измеряется на высoте 10 м (на урoвне рoста челoвека скoрoсть ветра ниже в 1.5-2 раза). Если метеoстанция нахoдится в гoрoде или в лесу, тo скoрoсть ветра занижена на 2-4 м/с пo сравнению с oткрытым местoм. Скoрoсть ветра над акватoриями крупных рек и oзёр, а также на вершинах хoлмoв на 2-5 м/с выше, чем в oбычных услoвиях.
Атмoсфернoе давление в разных тoчках местнoсти мoжет значительнo oтличаться oт давления на метеoстанции, в зависимoсти oт услoвий рельефа (при пoдъёме на 10 м давление пoнижается примернo на 1 мм рт.ст.).